Regional Weather Roundup
Issued by NWS

Home | Current Version | Previous Version | Graphics & Text | Print | Product List | Glossary On
Versions: 1 2 3 4 5 6 7 8 9 10 11 12 13 14 15 16 17 18 19 20 21 22 23 24 25 26 27 28 29 30 31 32 33 34 35 36 37 38 39 40 41 42 43 44 45 46 47 48 49 50
229
ASUS43 KOAX 230410
RWRNE

WEATHER ROUNDUP FOR NEBRASKA
NATIONAL WEATHER SERVICE OMAHA NE
1100 PM CDT SAT APR 22 2017

NOTES: SATELLITE DATA IS BEING USED TO AUGMENT CLOUD COVER ABOVE
       12000 FEET.
       "FAIR" INDICATES FEW OR NO CLOUDS BELOW 12,000 FEET WITH NO
       SIGNIFICANT WEATHER AND/OR OBSTRUCTIONS TO VISIBILITY.

  * THESE STATIONS DO NOT REPORT WEATHER SUCH AS RAIN...SNOW OR FOG.

NEZ001>004-019>022-054>056-230500-
NEBRASKA PANHANDLE

CITY           SKY/WX    TMP DP  RH WIND       PRES   REMARKS
SCOTTSBLUFF    CLEAR     49  30  48 S9        30.15S
ALLIANCE       CLEAR     46  31  55 S15       30.14F
CHADRON        CLEAR     52  31  44 S15       30.10R
KIMBALL        CLEAR     40  34  81 S8        30.20R WCI  34
SIDNEY         CLEAR     36  31  82 S9        30.20F WCI  29
$$

NEZ057>060-069>072-079>082-230500-
SOUTHWEST NEBRASKA

CITY           SKY/WX    TMP DP  RH WIND       PRES   REMARKS
NORTH PLATTE   CLEAR     41  29  62 CALM      30.21R
IMPERIAL       CLEAR     45  33  63 SW7       30.23R
LEXINGTON      CLEAR     48  29  47 SE7       30.22S
MCCOOK         CLEAR     45  29  53 SW6       30.23R
OGALLALA       CLEAR     46  28  50 CALM      30.21S
$$

NEZ005>010-023>029-035>040-094-230500-
NORTH CENTRAL NEBRASKA

CITY           SKY/WX    TMP DP  RH WIND       PRES   REMARKS
VALENTINE      CLEAR     53  28  38 S13       30.13F
BROKEN BOW     CLEAR     36  27  69 CALM      30.20S
O`NEILL        CLEAR     49  33  54 S6        30.19R
ORD            CLEAR     42  33  70 S8        30.19S
THEDFORD       CLEAR     48  26  43 S9        30.19S
$$

NEZ041-046>049-061>064-073>077-083>087-230500-
SOUTH CENTRAL NEBRASKA

CITY           SKY/WX    TMP DP  RH WIND       PRES   REMARKS
GRAND ISLAND   CLEAR     45  31  58 CALM      30.23S
AURORA         CLEAR     49  27  41 E3        30.22S
HASTINGS       CLEAR     47  29  49 CALM      30.24S
HEBRON         CLEAR     44  32  63 CALM      30.24R
HOLDREGE       CLEAR     50  26  39 CALM      30.23S
KEARNEY *      CLEAR     48  27  43 CALM      30.24S
YORK           CLEAR     50  30  46 CALM      30.23S
$$

NEZ011>018-030>034-042>045-230500-
NORTHEAST NEBRASKA

CITY           SKY/WX    TMP DP  RH WIND       PRES   REMARKS
NORFOLK        CLEAR     52  29  41 S6        30.19S
ALBION         CLEAR     45  35  66 CALM      30.21R
BLAIR          CLEAR     56  32  39 CALM      30.20S
FREMONT        CLEAR     49  38  66 CALM      30.21S
TEKAMAH        CLEAR     50  41  71 CALM      30.19F
WAYNE          CLEAR     42  35  76 SW6       30.19S
$$

NEZ050>053-065>068-078-088>093-230500-
SOUTHEAST NEBRASKA

CITY           SKY/WX    TMP DP  RH WIND       PRES   REMARKS
LINCOLN        CLEAR     42  36  79 N5        30.23R
OMAHA EPPLEY   CLEAR     49  37  63 N3        30.21R
BEATRICE       CLEAR     47  36  65 CALM      30.22S
FALLS CITY     CLEAR     51  31  46 CALM      30.20R
NEBRASKA CITY  CLEAR     56  22  26 NE3       30.21R
PLATTSMOUTH    CLEAR     54  24  32 CALM      30.21R
$$

NEZ044-045-051>053-067-230500-
OMAHA AREA

CITY           SKY/WX    TMP DP  RH WIND       PRES   REMARKS
OMAHA EPPLEY   CLEAR     49  37  63 N3        30.21R
BLAIR          CLEAR     56  32  39 CALM      30.20S
FREMONT        CLEAR     49  38  66 CALM      30.21S
MILLARD        CLEAR     51  39  63 CALM      30.21S
OFFUTT AFB     CLEAR     45  37  72 NW3       30.20R
PLATTSMOUTH    CLEAR     54  24  32 CALM      30.21R
WAHOO          FAIR      50  36  59 NW3       30.21F
$$




USA.gov is the U.S. government's official web portal to all federal, state and local government web resources and services.